Lexington Weather

Lexington, Massachusetts, USA

24°F
3/3/2021 3:46am 
  • Lexington Conditions: Overcast
  • Temperature: 24.1°F / -4.4°CWarmer 1.5°F than last hour.
  • Dew Point: 10.6°FIncreased 0.6°Fsince last hour.
  • Relative Humidity: 56%Decreased 2.0% since last hour.
  • Wind: Wind from W W 3 mph, 10-min avg: 2 mph, gust: 8 mph
  • Barometer: 29.85 inFalling 0.03  inHg/hr Falling Slowly
  • Visibility: 10 miles
  • Snow Today: 0.0 in
  •   

Regional Weather Roundup
for Boston / Norton, MA

        
000
ASUS41 KBOX 251904
RWRBOX

REGIONAL WEATHER ROUNDUP
NATIONAL WEATHER SERVICE BOSTON/NORTON MA
200 PM EST THU FEB 25 2021

NOTE:  "FAIR" INDICATES FEW OR NO CLOUDS BELOW 12,000 FEET WITH NO 
SIGNIFICANT WEATHER AND/OR OBSTRUCTIONS TO VISIBILITY.

MAZALL-252000-
EASTERN MASSACHUSETTS
  
CITY           SKY/WX    TMP DP  RH WIND       PRES   REMARKS
BOSTON         MOSUNNY   44  16  32 W20G25    29.98S                  
BEVERLY        MOSUNNY   43  15  32 W16G29    29.95S                  
LAWRENCE       MOSUNNY   42  16  34 W14G28    29.97S                  
BEDFORD        MOSUNNY   42  16  34 W18G28    29.97S                  
BLUE HILL        N/A     40  18  41 W13G29    29.94S                  
NORWOOD        SUNNY     45  18  34 W14G26    29.99R                  
MARSHFIELD     SUNNY     48  16  27 W13G22    29.97R                  
PLYMOUTH       SUNNY     46  17  31 W20       29.96S                  
TAUNTON        SUNNY     47  15  27 W12G21    29.99R                  
NEW BEDFORD    SUNNY     49  14  24 NW12G23   29.98S                  
$$

MAZALL-252000-
CAPE COD AND THE ISLANDS
  
CITY           SKY/WX    TMP DP  RH WIND       PRES   REMARKS
FALMOUTH       SUNNY     48  14  25 NW23      29.97S                  
HYANNIS        SUNNY     49  15  25 NW15G24   29.95S                  
CHATHAM        SUNNY     46  20  35 VRB7      29.98R                  
PROVINCETOWN   SUNNY     44  26  49 NW14G22   29.98S                  
NANTUCKET      MOSUNNY   47  19  33 NW16G22   29.98F                  
MARTHAS VNYRD  SUNNY     49  17  28 NW15G24   29.99R                  
$$
 
MAZALL-252000-
CENTRAL AND WESTERN MASSACHUSETTS
  
CITY           SKY/WX    TMP DP  RH WIND       PRES   REMARKS
WORCESTER      MOSUNNY   39  16  39 W21G30    29.97S WCI  29          
FITCHBURG      SUNNY     40  17  39 W21G26    29.98S WCI  30          
ORANGE         PTSUNNY   40  17  39 W14G22    30.01S                  
SPRINGFIELD    MOSUNNY   42  20  41 NW14G23   30.02S                  
WESTFIELD      MOSUNNY   41  19  41 NW24      30.03S WCI  31          
NORTH ADAMS    MOSUNNY   38  19  46 W14G29    30.03S WCI  30          
PITTSFIELD     MOSUNNY   35  20  54 W23G31    30.01R WCI  23          
$$
 
RIZALL-252000-
RHODE ISLAND
  
CITY           SKY/WX    TMP DP  RH WIND       PRES   REMARKS
PROVIDENCE     MOSUNNY   46  17  31 W20G28    30.01R                  
NEWPORT        SUNNY     45  19  35 NW15G22   30.00S                  
BLOCK ISLAND   SUNNY     45  24  43 W13G23    30.04R                  
SMITHFIELD     SUNNY     42  17  36 NW18G30   30.00R                  
WESTERLY       SUNNY     45  16  31 W9G18     30.03S                  
$$
 
CTZALL-252000-
CONNECTICUT
  
CITY           SKY/WX    TMP DP  RH WIND       PRES   REMARKS
BRADLEY INTL   MOSUNNY   43  19  38 W21G30    30.03F                  
HARTFORD       MOSUNNY   46  15  28 W12       30.06F                  
BRIDGEPORT     SUNNY     48  18  30 NW16      30.06S                  
DANBURY        SUNNY     45  17  32 NW9       30.08S                  
GROTON         SUNNY     47  17  30 NW15G24   30.04S                  
NEW HAVEN      SUNNY     48  19  31 NW16G24   30.05F                  
CHESTER        FAIR      45  16  31 NW10G18   30.04S                  
MERIDEN        SUNNY     45  18  34 NW13      30.05F                  
WILLIMANTIC    SUNNY     43  18  36 NW13G21   30.04F                  
OXFORD         SUNNY     43  18  36 W9G21     30.05S                  
$$

MEZ002-015-021-024-NHZ003-005-008-011-012-014-VTZ005-008-252000-
NORTHERN NEW ENGLAND
  
CITY           SKY/WX    TMP DP  RH WIND       PRES   REMARKS
PORTLAND ME    MOSUNNY   38  18  44 NW22G32   29.91R WCI  27          
BANGOR ME      PTSUNNY   32  11  41 NW18G32   29.82R WCI  20          
CONCORD NH     MOSUNNY   39  14  36 W20G26    29.95S WCI  29          
MANCHESTER NH  MOSUNNY   42  14  32 W17G29    29.94F                  
NASHUA NH      MOSUNNY   43  14  31 NW20G28   29.97S                  
PORTSMOUTH NH  MOSUNNY   41   9  26 W16G32    29.92S                  
JAFFREY NH     MOSUNNY   37  13  37 NW12G24   29.95S WCI  29          
KEENE NH       MOSUNNY   40  15  36 NW17G24   29.98F WCI  31          
BURLINGTON VT  PTSUNNY   32  14  47 NW20      30.06R WCI  20          
MT. WASHINGTON SNOWSHWR   3   3 100 W77G90      N/A  VSB 1/16WCI -31  
$$

NYZ052-076-252000-
EASTERN NEW YORK
  
CITY           SKY/WX    TMP DP  RH WIND       PRES   REMARKS
ALBANY         MOSUNNY   36  19  50 W24G37    30.08S WCI  24          
NEW YORK CITY  MOSUNNY   47  18  31 W14G21    30.11S                  
$$
 
ANZALL-252000-
MARINE OBSERVATIONS
  
STATION/POSITION TIME  TEMP    WIND        PRES    VSBY  WAVE
                       AIR SEA DIR/SP/G                  HT/PER
                 (UTC) (F)     (DEG/KT/KT) (MB)    (MI)  (FT/S)
BOSTON BUOY      1850   41 39  280/ 17/ 23 1015.3R         3/ 4
BUZZARDS BAY     1800          300/ 16/ 18 1016.9R
NANTUCKET SOUND  1850      37  270/ 10/ 12   N/A           1/ 3
MASS BAY-STELLWA 1804   41     280/ 21/ 27 1013.1F  1 7/8  3/ 4
ISLE OF SHOALS   1800   39     290/ 25/ 27 1012.7F
S OF BLOCK IS    1856      40                N/A           5/ 8
$$

......................KEY.........................
  SKY/WX - SKY CONDITION/PRESENT WEATHER
  TMP    - TEMPERATURE IN FAHRENHEIT
  DWPT   - DEWPOINT IN FAHRENHEIT
  RH     - RELATIVE HUMIDITY IN PERCENT
  WIND   - DIRECTION AND SPEED IN MPH
  PRES   - MEAN SEA LEVEL PRESSURE IN INCHES OF HG
  WCI    - WIND CHILL INDEX
  VSB    - VISIBILITY IN MILES
  HX     - HEAT INDEX
  TC     - TEMPERATURE IN CELSIUS
  VRB    - VARIABLE WIND DIRECTION
  N/A    - NOT AVAILABLE
  
      

Other recent Regional Weather Roundups

Wed Mar 3, 3:04am

Wed Mar 3, 2:04am

Wed Mar 3, 1:04am

Wed Mar 3, 12:04am

Tue Mar 2, 11:04pm

Tue Mar 2, 10:05pm

Tue Mar 2, 9:04pm

Tue Mar 2, 8:04pm

Tue Mar 2, 7:04pm

Tue Mar 2, 6:04pm

Tue Mar 2, 5:04pm

Tue Mar 2, 4:05pm

Tue Mar 2, 3:04pm

Tue Mar 2, 2:04pm

Tue Mar 2, 1:04pm

Tue Mar 2, 12:04pm

Tue Mar 2, 11:04am

Tue Mar 2, 10:05am

Tue Mar 2, 9:04am

Tue Mar 2, 8:04am

Tue Mar 2, 7:04am

Tue Mar 2, 6:05am

Tue Mar 2, 5:04am

Tue Mar 2, 4:04am

Tue Mar 2, 3:04am

Tue Mar 2, 2:04am

Tue Mar 2, 1:04am

Tue Mar 2, 12:04am

Mon Mar 1, 11:04pm

Mon Mar 1, 10:04pm

Mon Mar 1, 9:04pm

Mon Mar 1, 8:04pm

Mon Mar 1, 7:04pm

Mon Mar 1, 6:04pm

Mon Mar 1, 5:04pm

Mon Mar 1, 4:05pm

Mon Mar 1, 3:05pm

Mon Mar 1, 2:04pm

Mon Mar 1, 1:04pm

Mon Mar 1, 12:04pm

Mon Mar 1, 11:04am

Mon Mar 1, 10:04am

Mon Mar 1, 9:04am

Mon Mar 1, 8:05am

Mon Mar 1, 7:04am

Mon Mar 1, 6:04am

Mon Mar 1, 5:04am

Mon Mar 1, 4:05am

Mon Mar 1, 3:04am

Mon Mar 1, 2:04am

Mon Mar 1, 1:04am

Mon Mar 1, 12:05am

Sun Feb 28, 11:04pm

Sun Feb 28, 10:04pm

Sun Feb 28, 9:04pm

Sun Feb 28, 8:04pm

Sun Feb 28, 7:04pm

Sun Feb 28, 6:05pm

Sun Feb 28, 5:04pm

Sun Feb 28, 4:05pm

Sun Feb 28, 3:04pm

Sun Feb 28, 2:04pm

Sun Feb 28, 1:04pm

Sun Feb 28, 12:04pm

Sun Feb 28, 11:04am

Sun Feb 28, 10:04am

Sun Feb 28, 9:04am

Sun Feb 28, 8:04am

Sun Feb 28, 7:04am

Sun Feb 28, 6:04am

Sun Feb 28, 5:04am

Sun Feb 28, 4:04am

Sun Feb 28, 3:04am

Sun Feb 28, 2:04am

Sun Feb 28, 1:04am

Sun Feb 28, 12:04am

Sat Feb 27, 11:04pm

Sat Feb 27, 10:04pm

Sat Feb 27, 9:04pm

Sat Feb 27, 8:04pm

Sat Feb 27, 7:04pm

Sat Feb 27, 6:04pm

Sat Feb 27, 5:04pm

Sat Feb 27, 4:04pm

Sat Feb 27, 3:05pm

Sat Feb 27, 2:05pm

Sat Feb 27, 1:04pm

Sat Feb 27, 12:04pm

Sat Feb 27, 11:04am

Sat Feb 27, 10:04am

Sat Feb 27, 9:05am

Sat Feb 27, 8:04am

Sat Feb 27, 7:04am

Sat Feb 27, 6:04am

Sat Feb 27, 5:04am

Sat Feb 27, 4:04am

Sat Feb 27, 3:04am

Sat Feb 27, 2:04am

Sat Feb 27, 1:04am

Sat Feb 27, 12:04am

Fri Feb 26, 11:04pm

Fri Feb 26, 10:04pm

Fri Feb 26, 9:04pm

Fri Feb 26, 8:04pm

Fri Feb 26, 7:04pm

Fri Feb 26, 6:04pm

Fri Feb 26, 5:04pm

Fri Feb 26, 4:04pm

Fri Feb 26, 3:04pm

Fri Feb 26, 2:04pm

Fri Feb 26, 1:04pm

Fri Feb 26, 12:04pm

Fri Feb 26, 11:04am

Fri Feb 26, 10:04am

Fri Feb 26, 9:04am

Fri Feb 26, 8:04am

Fri Feb 26, 7:04am

Fri Feb 26, 6:04am

Fri Feb 26, 5:04am

Fri Feb 26, 4:04am

Fri Feb 26, 3:04am

Fri Feb 26, 2:04am

Fri Feb 26, 1:04am

Fri Feb 26, 12:04am

Thu Feb 25, 11:04pm

Thu Feb 25, 10:04pm

Thu Feb 25, 9:04pm

Thu Feb 25, 8:05pm

Thu Feb 25, 7:05pm

Thu Feb 25, 6:04pm

Thu Feb 25, 5:04pm

Thu Feb 25, 4:05pm

Thu Feb 25, 3:05pm

Thu Feb 25, 1:04pm

Thu Feb 25, 12:05pm

Thu Feb 25, 11:04am

Thu Feb 25, 10:04am

Thu Feb 25, 9:04am

Thu Feb 25, 8:04am

Thu Feb 25, 7:04am

Thu Feb 25, 6:04am

Thu Feb 25, 5:04am

Thu Feb 25, 4:04am

Thu Feb 25, 3:04am

Thu Feb 25, 2:04am

Thu Feb 25, 1:04am

Thu Feb 25, 12:04am

Wed Feb 24, 11:04pm

Wed Feb 24, 10:05pm

Wed Feb 24, 9:04pm

Wed Feb 24, 8:04pm

Wed Feb 24, 7:04pm

Wed Feb 24, 6:04pm

Wed Feb 24, 5:04pm

Wed Feb 24, 4:04pm

Wed Feb 24, 3:04pm

Wed Feb 24, 2:05pm

Wed Feb 24, 1:05pm

Wed Feb 24, 12:05pm

Wed Feb 24, 11:04am

Wed Feb 24, 10:04am

Wed Feb 24, 9:04am

Wed Feb 24, 8:04am

Wed Feb 24, 7:04am

Wed Feb 24, 6:04am

Wed Feb 24, 5:04am

Wed Feb 24, 4:04am

Meta data:

ID: 8c9f4ca4-9f9a-4a8c-928e-da28d309e9e1
Link: https://api.weather.gov/products/8c9f4ca4-9f9a-4a8c-928e-da28d309e9e1